Tracking 31027 objects as of 19-Jul-2025
HD Live streaming from Space Station
objects crossing your sky now

JILIN-01-08

Track JILIN-01-08 now!
10-day predictions


NORAD ID: 43160
Int'l Code: 2018-008F
Perigee: 484.7 km
Apogee: 494.6 km
Inclination: 97.2 °
Period: 94.3 minutes
Semi major axis: 6860 km
RCS: Unknown
Launch date: January 19, 2018
Source: People's Republic of China (PRC)
Launch site: Jiuquan Satellite Launch Center, China (JSC)
Your satellite tracking list
COSMOS 2502
Track 1 satellite(s)




NASA's NSSDC Master Catalog

Two Line Element Set (TLE):
1 43160U 18008F   25199.85244363  .00005899  00000-0  22013-3 0  9994
2 43160  97.2073 224.2053 0007217 170.2251 189.9131 15.27744112413955
Source of the keplerian elements: AFSPC